Wind_Speed
17 18 19 21 22 24 26 27 27 26 24 23 22 19 16 15 15 13 12 11 11 10 9 9 9 9 8 7 6 6 7 7 8 8 7 6 5 4 3 3 2 2 3 3 4 4 3 3 3 3 2 2 1 0 0 1 2 3 4 4 5 5 6 6 6 6 7 7 7 7 7 8 10 11 12 13 15 16 17 18 19 19 20 20 20
17 17 17 18 18 19 22 26 28 27 26 25 24 22 19 18 18 17 15 15 14 14 13 12 11 10 9 9 8 8 8 9 9 9 9 8 8 7 6 6 5 4 4 4 5 6 6 6 6 6 5 5 4 4 5 6 6 7 7 8 8 9 9 9 10 10 10 10 10 11 11 12 13 14 15 17 18 20 21 22 23 24 25 25 25
14 13 13 12 12 13 17 23 28 29 29 27 26 25 23 21 21 20 19 17 16 16 16 15 14 12 12 13 13 12 11 11 11 11 11 11 10 9 9 9 9 9 8 7 7 8 8 9 9 9 9 9 9 9 9 10 10 11 12 12 12 12 12 12 13 13 14 14 14 14 15 16 17 18 19 20 21 22 23 24 25 26 27 27 28
11 10 9 9 10 11 14 19 26 30 31 30 29 28 25 23 22 22 22 20 19 19 18 17 16 15 16 17 17 17 16 14 14 14 14 14 13 12 12 12 12 12 12 10 10 10 10 10 11 12 13 13 13 13 13 14 14 15 15 15 15 15 15 14 15 15 16 17 17 18 19 20 21 22 23 23 24 25 25 26 27 27 28 29 30
12 11 10 10 11 12 14 18 24 30 32 32 32 30 27 24 24 24 24 23 22 22 21 19 19 19 19 19 18 20 21 20 19 18 17 17 17 16 16 15 15 16 15 13 13 13 13 13 12 13 14 15 16 16 16 16 17 17 18 18 17 17 17 16 16 17 18 19 20 21 22 23 25 25 26 26 27 27 27 28 29 29 30 31 32
12 11 11 11 12 12 14 17 22 28 32 32 31 30 28 26 25 25 26 26 25 24 23 21 21 21 22 20 20 21 22 23 24 23 19 18 18 18 18 18 18 19 19 17 16 16 17 16 14 13 15 16 17 18 18 18 18 18 18 19 19 19 19 19 19 19 20 21 22 23 24 25 27 27 28 28 28 29 29 30 31 32 33 33 33
12 12 12 13 13 13 14 16 19 25 29 31 30 30 29 28 26 26 27 27 27 26 24 23 23 23 22 22 23 22 21 21 22 23 21 20 20 20 20 20 20 21 21 20 19 18 20 20 18 17 17 17 18 20 21 20 20 20 20 20 20 21 21 21 22 23 23 24 25 25 26 26 27 28 29 30 30 31 31 32 33 33 34 34 34
12 12 12 12 13 13 14 15 16 20 25 28 29 30 30 28 27 26 26 26 26 26 26 26 25 24 23 24 24 23 21 20 19 19 20 21 21 21 20 19 20 21 22 22 22 21 22 22 21 21 20 19 20 21 21 22 23 24 24 23 22 23 23 24 25 26 26 27 27 27 28 28 29 30 31 31 31 32 33 33 34 34 33 33 33
12 11 11 11 12 12 13 14 14 16 19 22 24 26 26 26 26 26 26 25 26 26 26 27 26 25 25 24 23 22 22 21 19 18 19 19 19 18 18 17 17 17 19 21 22 23 24 25 25 24 22 21 22 22 22 23 25 26 26 25 25 26 27 28 28 28 28 28 29 30 31 32 32 32 30 28 29 30 32 33 33 34 33 32 32
13 11 11 11 11 12 12 13 13 14 15 17 20 21 21 21 23 24 23 23 24 24 25 25 26 25 24 23 22 22 21 20 19 19 18 17 16 16 15 15 15 16 17 18 19 21 23 24 25 25 24 24 24 24 24 25 25 26 26 26 27 27 28 29 31 31 30 31 32 33 34 34 34 33 29 26 26 29 31 32 33 33 33 32 32
15 13 13 12 12 12 12 13 13 13 14 15 16 16 16 18 19 20 20 20 21 21 22 23 23 23 21 20 20 19 18 18 18 18 16 16 15 16 16 16 16 16 17 18 19 20 21 21 22 23 25 26 25 26 26 25 25 26 26 26 26 27 29 31 33 34 35 35 35 36 36 36 35 33 30 27 27 29 30 32 33 34 34 34 33
14 14 13 13 13 13 14 14 14 13 14 14 14 14 15 16 17 18 18 18 19 19 20 20 20 19 19 18 18 17 18 19 19 19 18 17 17 17 18 18 19 19 20 20 21 21 21 21 22 23 25 26 26 27 27 26 26 26 27 27 29 31 33 34 35 36 37 36 36 36 36 35 34 33 31 30 30 31 31 33 34 34 35 35 35
14 13 13 13 14 14 15 15 15 14 14 15 14 14 14 14 16 16 16 16 17 17 17 17 18 18 18 18 18 19 20 21 21 22 22 22 22 22 22 22 23 24 24 24 24 24 23 23 24 24 26 27 28 29 30 29 29 29 30 30 31 33 34 35 36 36 36 36 36 35 34 34 34 35 34 34 34 34 34 35 35 36 37 37 37
14 14 14 14 14 15 16 15 15 14 14 14 14 13 13 13 14 14 15 15 16 17 17 18 19 20 20 21 22 23 23 24 25 26 26 26 26 26 27 27 27 27 28 28 28 27 27 26 26 27 27 29 29 30 31 31 31 31 32 32 32 33 34 34 35 35 35 35 34 33 33 33 35 35 36 37 37 38 38 38 38 38 39 39 38
15 15 16 16 16 16 16 15 14 13 13 13 13 14 14 14 14 15 15 16 18 19 20 21 21 22 23 24 25 25 26 26 27 27 28 28 29 29 29 29 29 29 29 29 29 28 28 28 28 28 28 28 29 29 30 31 31 31 31 31 31 32 33 34 34 34 33 33 32 33 33 34 35 36 37 38 38 39 39 39 40 40 40 40 40
14 16 18 19 19 18 18 17 16 16 15 15 15 15 15 15 15 16 16 17 19 20 21 22 23 24 25 26 26 27 27 28 28 29 29 29 29 29 29 29 29 29 29 29 28 28 27 27 27 28 28 28 28 29 29 30 30 30 30 31 31 32 32 32 32 32 32 32 33 34 35 35 36 37 37 38 39 39 40 41 41 42 42 42 42
16 18 20 21 21 20 20 20 20 19 18 17 17 16 16 16 16 16 17 18 19 20 21 22 23 23 24 25 26 27 27 28 28 28 28 29 28 28 28 28 28 28 28 28 28 28 28 27 27 27 27 28 28 29 29 29 29 30 30 31 31 32 32 32 32 32 32 32 33 34 34 35 35 37 38 39 40 41 41 42 42 42 43 43 43
18 19 20 21 22 22 22 22 21 20 19 18 17 16 16 17 17 17 18 18 18 19 20 21 22 23 23 24 25 26 26 27 27 28 28 28 28 28 28 28 27 27 27 27 27 27 28 28 28 27 26 27 27 28 28 28 28 29 30 30 31 31 31 31 31 32 32 32 33 34 34 35 36 38 39 40 41 41 42 43 42 43 43 43 42
20 19 19 21 21 21 21 22 24 24 22 21 20 19 19 19 19 18 18 18 18 19 21 22 23 24 25 25 26 26 27 27 27 28 28 28 29 29 29 30 29 29 28 28 27 28 28 28 29 28 28 28 28 28 28 28 28 28 29 29 30 30 30 31 31 32 33 34 34 35 36 37 38 39 40 41 41 42 42 42 42 42 42 42 42
19 17 17 18 19 18 18 20 22 23 24 24 24 23 21 21 21 20 20 21 22 22 23 24 25 26 27 27 28 28 28 28 28 29 29 29 29 30 30 31 31 30 29 29 29 29 29 29 29 30 30 31 31 31 31 31 31 31 31 31 32 32 33 33 34 35 36 36 37 37 38 39 39 40 40 40 41 41 41 41 41 41 42 42 42
18 17 17 17 17 17 18 18 17 18 20 22 23 23 22 22 23 23 24 25 25 25 25 26 27 28 29 29 30 30 30 30 30 30 30 30 30 30 30 31 31 30 30 30 30 30 30 30 30 31 31 32 32 33 33 34 34 34 34 34 35 35 36 37 37 37 38 38 39 39 40 40 40 40 40 40 39 39 39 40 40 41 42 43 44
19 19 18 18 18 18 18 17 17 17 18 20 21 22 23 23 23 23 24 24 24 25 25 26 28 29 30 30 31 31 32 32 32 32 32 32 32 31 31 31 31 31 31 31 31 31 32 32 32 33 33 33 34 34 34 34 35 35 35 36 36 36 37 38 38 38 39 39 39 39 39 39 39 39 38 38 38 38 39 39 40 42 43 45 46
23 22 21 20 20 20 19 18 17 18 19 20 22 23 24 24 24 24 24 24 24 25 26 27 27 28 29 30 31 32 32 33 33 33 34 33 33 33 33 33 33 33 32 33 33 34 34 35 35 35 36 36 36 36 36 36 36 36 36 36 36 37 37 38 38 38 38 38 38 38 38 38 38 37 37 37 37 38 39 40 42 43 45 46 47
25 25 24 24 23 22 21 21 20 20 21 21 23 24 25 26 26 26 26 26 26 27 27 28 28 29 30 30 31 31 32 32 33 34 34 34 34 35 35 35 34 34 34 34 34 35 36 37 37 37 38 38 38 38 37 37 37 37 37 37 37 37 37 38 38 38 38 38 37 37 37 36 36 36 36 37 38 39 40 42 43 44 45 46 46
28 28 27 27 26 25 24 24 24 24 24 24 24 25 25 26 27 28 28 29 29 29 29 29 29 30 31 31 31 32 32 33 33 34 35 35 35 36 36 36 35 35 35 35 35 36 37 37 38 38 38 38 38 38 38 38 38 38 38 38 37 37 37 38 38 37 37 36 36 35 35 35 35 36 36 38 39 40 41 42 43 43 44 44 44
31 31 31 30 29 28 28 28 27 27 26 26 27 27 28 28 29 29 30 31 30 30 29 29 30 31 31 32 33 33 34 35 35 35 35 36 36 37 37 37 36 36 36 36 36 37 37 37 37 37 37 37 37 37 37 38 38 38 38 37 37 36 36 36 36 36 35 34 33 33 33 34 34 35 37 38 39 40 41 42 42 43 43 41 39
36 35 35 34 33 33 32 31 30 30 29 29 29 30 30 31 32 32 32 32 32 32 31 32 32 33 33 34 34 35 36 36 37 37 37 36 37 37 37 37 37 36 36 36 36 36 36 35 35 35 35 35 35 35 35 35 35 35 35 34 34 34 34 34 33 33 32 31 31 31 32 33 34 35 36 36 37 38 40 41 42 41 39 36 33
40 39 39 38 38 37 36 35 34 33 32 32 32 33 33 34 34 34 34 34 35 36 36 36 36 36 36 36 37 37 37 36 36 36 36 36 36 36 36 36 35 34 33 33 33 33 33 33 34 34 34 34 34 34 34 33 32 32 31 30 30 30 30 30 30 29 29 29 30 30 31 32 33 33 34 35 36 38 39 40 39 36 33 31 31
41 41 42 42 41 41 40 39 38 37 36 35 36 36 36 36 36 36 36 37 37 38 38 38 38 38 38 38 38 38 37 36 35 35 35 34 33 32 32 32 31 30 30 30 30 31 32 33 33 34 33 33 33 32 31 29 28 27 27 27 27 27 27 27 26 26 27 27 28 29 29 29 30 31 33 34 36 36 36 35 33 31 30 30 31
41 41 41 41 41 41 42 41 41 40 40 39 39 39 38 38 38 37 37 38 38 38 38 38 37 37 37 37 37 37 37 36 34 33 31 30 29 29 29 28 28 28 29 29 30 31 32 32 32 32 31 30 28 26 24 24 24 24 25 25 24 24 24 24 24 24 25 25 26 26 27 28 29 31 32 33 33 31 30 29 28 28 29 29 30
41 40 39 39 39 39 39 39 39 39 39 40 40 40 40 39 38 37 37 37 37 37 37 37 36 36 36 37 37 37 37 35 33 30 29 28 28 28 28 27 28 28 29 30 30 30 30 30 29 28 26 24 21 20 20 21 22 22 23 22 22 22 22 22 22 22 22 22 23 24 26 28 29 30 30 30 28 26 24 25 26 26 26 27 27
40 39 38 37 37 37 36 36 35 35 36 38 40 40 41 40 39 38 38 37 37 37 37 36 36 36 36 37 37 36 34 33 31 30 29 28 28 28 28 28 28 28 29 29 28 27 27 26 24 21 19 18 17 18 19 20 20 20 20 20 20 19 19 19 18 19 19 20 22 24 26 27 28 28 28 27 25 23 22 23 23 24 24 24 24
38 37 36 35 35 36 36 35 35 34 34 36 39 40 40 40 40 39 38 37 37 38 37 37 37 36 36 36 35 33 31 30 30 29 29 29 28 28 28 28 29 28 28 28 26 25 24 22 19 17 16 16 17 18 19 19 19 18 18 17 17 16 16 16 16 17 18 20 21 23 25 26 26 26 25 25 24 22 21 21 22 22 23 22 21
36 34 34 34 34 34 35 35 35 35 35 35 37 39 40 40 40 40 38 37 37 38 38 38 37 37 35 34 31 30 29 29 28 28 29 29 29 28 28 27 28 28 28 26 24 23 21 19 17 16 17 17 18 19 19 18 17 16 15 14 14 14 14 15 16 17 18 19 21 22 23 24 25 25 25 24 23 21 21 21 21 21 21 20 19
35 33 32 31 31 32 33 33 34 35 36 36 37 38 39 40 39 39 37 36 36 38 39 39 37 36 34 32 30 29 28 28 28 28 28 28 28 27 26 25 25 26 25 23 21 20 18 17 17 17 18 19 19 18 17 15 13 12 11 12 12 13 13 14 15 16 18 19 20 21 22 23 24 25 25 24 23 22 20 20 20 20 21 20 19
32 30 29 29 29 29 29 30 32 34 36 38 39 39 39 39 39 38 38 38 38 39 39 38 36 34 33 31 29 28 28 28 27 27 27 27 26 24 23 23 24 24 22 21 19 17 17 17 19 19 18 18 17 15 13 11 10 10 10 11 12 12 12 13 14 15 16 17 18 20 21 23 24 25 25 25 24 22 21 20 20 21 21 20 19
29 28 27 26 27 27 27 26 28 30 33 35 37 39 39 40 40 39 39 38 38 38 37 36 34 33 31 30 28 28 27 27 27 28 27 25 23 23 23 23 23 22 20 19 18 17 18 19 18 17 16 15 14 12 10 8 9 9 11 11 11 11 11 12 13 14 15 16 17 19 21 23 24 25 25 24 23 21 20 20 21 21 21 20 18
26 24 24 24 24 24 24 24 24 25 26 29 32 34 36 37 38 39 38 37 36 35 34 32 31 30 29 28 27 27 27 27 27 27 26 24 23 23 23 21 20 19 18 17 18 19 19 18 16 14 13 12 10 9 8 8 8 10 11 10 9 9 11 12 12 13 14 16 18 19 21 22 24 25 25 24 23 21 20 20 21 21 21 19 16
22 21 21 21 20 20 20 22 23 22 22 23 25 26 27 28 30 31 30 30 29 29 29 29 28 28 27 26 26 26 25 24 23 23 23 22 21 21 20 19 18 18 17 18 19 19 17 14 13 12 11 9 8 7 7 8 8 9 9 8 8 9 10 11 12 13 14 16 17 19 21 22 23 24 24 24 23 21 20 20 21 21 20 17 15
19 19 18 18 18 17 17 18 20 20 20 20 20 21 21 22 23 23 24 25 25 26 26 27 26 26 25 23 21 18 16 15 17 18 19 19 20 20 20 19 19 18 18 18 18 16 13 11 11 10 9 7 7 7 7 8 8 7 6 6 8 9 9 10 11 12 14 16 17 19 20 21 22 23 23 23 23 22 21 20 20 21 19 17 14
17 17 16 15 15 15 14 15 17 18 19 19 21 21 22 22 22 23 23 24 24 24 24 23 22 21 19 16 13 12 13 15 17 18 19 20 21 21 21 20 19 19 18 17 15 12 11 10 10 9 7 6 6 7 7 8 7 5 5 6 7 8 9 9 10 11 13 15 17 19 21 22 22 22 22 22 23 22 22 20 20 20 19 16 14
14 14 14 13 13 13 13 14 15 16 18 19 20 21 21 22 22 21 21 20 19 18 17 16 16 15 14 14 15 17 19 20 20 20 20 21 20 20 20 19 18 17 16 14 12 11 10 10 9 8 6 6 6 7 7 7 6 5 5 7 7 8 9 9 10 11 13 15 17 19 20 21 22 22 22 22 22 23 22 21 21 20 19 17 14
12 12 11 11 11 11 12 13 14 15 16 17 17 17 17 17 16 16 15 14 14 13 13 13 15 17 17 17 18 20 21 21 20 20 20 19 20 20 19 18 16 15 13 11 10 10 10 10 9 7 6 6 6 6 6 6 5 5 6 7 8 8 9 9 10 11 12 14 16 18 20 21 22 22 22 22 22 23 23 22 21 20 20 18 16
10 9 8 8 8 8 9 9 8 8 7 7 7 7 7 9 11 12 13 14 15 14 13 15 18 20 21 20 19 19 19 17 17 17 17 17 17 16 16 15 14 12 11 10 9 10 10 9 8 6 6 6 5 4 4 5 5 5 6 8 8 8 9 10 10 11 12 14 15 17 19 20 22 22 22 22 22 23 23 23 22 21 20 19 17
7 5 4 3 1 0 1 1 1 4 6 7 6 6 7 10 12 13 13 15 16 16 15 16 17 17 17 16 16 16 15 15 15 14 14 14 14 14 13 13 12 10 9 9 9 9 8 7 6 6 6 5 4 4 4 5 5 5 6 7 8 9 9 10 11 11 12 14 15 16 18 20 21 22 22 23 23 23 23 23 23 21 20 19 18
7 7 7 6 6 6 6 6 5 8 9 9 9 11 14 15 16 17 17 17 18 17 15 14 14 13 12 12 12 12 12 12 13 13 12 12 13 13 12 11 10 9 9 8 8 7 6 5 5 6 6 5 5 4 4 5 5 6 6 7 8 9 10 11 11 12 13 14 15 16 17 19 21 22 23 24 24 24 23 23 23 23 21 20 18
13 13 11 9 6 5 6 8 9 10 11 11 11 12 13 14 15 17 18 17 16 15 13 11 11 11 10 10 10 10 10 10 11 11 11 11 11 11 10 9 9 8 8 7 6 5 5 5 5 6 5 5 5 5 5 6 6 6 7 7 8 9 10 11 12 13 13 14 15 15 17 18 20 21 23 24 24 24 24 23 23 23 22 21 19
17 14 11 9 7 5 6 8 11 11 11 10 11 11 11 11 12 13 13 12 12 12 12 10 10 10 10 9 8 8 8 9 9 10 10 10 10 9 9 8 8 7 6 5 5 4 4 5 5 5 5 5 6 6 7 7 7 8 8 8 9 10 11 12 13 14 14 15 15 15 16 17 19 21 22 23 24 25 25 24 23 23 23 22 19
14 12 12 10 9 8 9 10 10 11 11 11 12 12 12 11 11 10 10 10 9 9 8 8 8 8 7 7 7 7 8 8 9 9 9 9 9 8 8 7 7 6 5 4 4 4 4 5 5 5 5 6 7 7 8 8 8 9 9 10 11 12 13 14 14 15 15 16 16 16 16 17 18 19 21 22 23 24 25 25 24 23 23 22 20
11 12 12 11 10 11 12 12 11 11 11 11 11 11 11 9 8 8 8 8 7 6 6 7 7 6 6 6 6 7 7 8 8 8 8 8 8 8 7 7 6 5 4 4 4 4 4 4 5 6 7 7 8 8 9 9 9 10 11 11 13 14 15 16 16 16 16 17 16 16 16 16 17 18 19 21 22 23 24 24 25 24 23 22 21
9 9 10 9 9 10 11 10 10 9 9 8 8 8 7 5 5 6 8 7 6 5 6 7 7 6 6 7 7 7 7 8 8 7 7 7 7 6 6 5 4 4 3 3 3 3 4 5 6 7 8 9 9 10 10 11 11 12 13 13 14 15 16 17 17 17 17 17 17 17 16 16 17 17 18 19 20 21 22 23 24 24 23 22 21
Wind_Direction
180 193 209 220 226 228 228 229 230 233 237 239 236 233 233 231 230 232 235 240 245 248 253 261 267 273 279 283 289 291 294 296 294 294 294 293 290 284 277 277 286 305 315 315 312 310 312 314 315 316 315 321 326 307 297 306 305 307 310 310 309 308 308 305 303 302 301 302 303 305 307 309 311 313 314 315 315 315 315 315 315 314 313 312 311
192 203 215 222 226 228 227 224 223 227 233 235 233 232 235 236 235 236 235 237 245 250 252 257 262 270 278 278 277 276 279 282 282 282 280 280 285 290 295 293 287 285 281 280 283 283 284 283 281 279 278 277 275 270 272 277 281 283 286 287 290 291 292 294 294 295 296 298 300 301 303 306 307 308 309 310 311 311 312 312 313 313 312 312 310
202 209 216 222 226 228 228 223 220 223 229 232 231 231 234 236 237 239 238 238 245 252 256 260 263 270 278 279 275 271 271 274 275 275 273 272 277 285 293 297 298 298 292 284 280 279 279 279 277 275 274 273 272 271 272 276 279 281 283 284 285 285 286 288 290 292 294 296 298 301 302 304 305 305 305 306 306 306 306 306 306 306 306 307 307
201 207 213 219 225 228 229 224 219 221 226 230 231 232 235 238 239 242 244 243 246 252 259 264 266 274 284 286 282 276 273 272 270 269 268 268 271 277 284 292 297 298 296 292 288 284 281 280 281 280 278 275 274 273 274 276 278 281 283 285 286 286 286 286 286 288 290 292 294 297 299 300 300 300 300 301 301 301 301 302 302 303 303 304 305
203 211 219 224 228 230 231 226 219 219 225 229 232 235 237 238 239 242 245 245 246 251 257 262 266 273 281 286 286 281 276 272 269 268 269 269 269 271 275 280 284 287 288 286 284 286 285 283 283 284 284 284 281 278 277 277 278 280 282 284 286 286 285 284 284 284 285 288 290 293 295 297 298 298 299 299 299 300 300 300 301 302 303 303 303
208 219 228 234 238 239 237 230 221 220 224 229 234 237 238 239 241 243 245 246 247 251 256 260 264 271 277 283 287 283 278 274 269 265 266 270 270 270 271 271 273 276 279 278 278 281 281 278 276 278 282 283 283 282 282 282 282 281 281 283 284 284 284 284 284 285 286 288 290 292 294 296 297 299 299 299 298 298 298 299 300 301 302 302 302
216 224 232 238 243 244 241 234 225 222 225 231 236 239 242 244 244 242 243 245 249 253 255 258 262 268 274 281 283 281 281 281 272 263 263 268 270 270 272 273 272 272 272 272 272 274 276 276 275 274 274 277 280 282 285 286 286 285 284 285 284 284 285 285 286 288 289 289 289 290 291 292 294 296 296 296 296 296 296 297 298 299 300 300 300
221 228 237 243 246 244 241 238 232 226 227 231 236 239 242 245 243 240 242 246 250 253 253 255 260 266 271 276 276 274 277 282 275 265 263 266 267 270 274 277 277 274 271 269 269 272 274 276 275 273 273 275 278 281 283 284 283 284 286 286 287 288 288 288 288 288 288 288 289 291 292 293 293 292 292 292 292 294 294 295 297 298 298 298 298
218 223 235 245 249 245 242 243 242 236 231 231 233 235 236 237 237 238 242 246 250 253 253 256 261 265 270 271 270 270 274 276 273 268 266 266 269 273 276 279 281 280 276 272 271 272 273 274 275 275 275 276 277 280 283 282 281 282 285 288 290 292 291 289 289 289 291 293 295 298 299 301 301 301 299 296 292 292 292 294 296 297 297 297 297
213 218 227 237 244 245 246 248 249 247 239 233 231 228 227 229 234 237 241 245 249 252 255 258 260 264 267 267 266 269 271 271 268 266 266 268 269 272 274 276 278 278 278 276 274 272 272 273 275 275 274 273 274 278 281 282 282 282 284 287 289 290 290 292 294 296 300 301 302 302 304 306 308 309 310 304 297 294 294 295 296 297 297 298 297
218 220 220 223 230 239 244 248 252 252 245 238 233 229 227 230 234 240 243 245 248 251 253 255 257 261 263 263 264 266 267 266 265 264 265 267 269 270 270 270 272 273 275 275 274 274 276 279 280 278 274 273 275 277 278 278 279 281 283 286 289 290 291 294 298 300 302 303 303 305 307 309 310 310 310 306 300 298 298 298 298 298 298 298 298
220 219 218 221 229 237 242 246 252 253 245 239 236 234 231 231 235 240 243 245 248 249 251 252 255 258 259 257 257 259 260 262 264 263 264 266 268 270 270 271 273 274 274 275 275 276 278 279 280 279 278 278 279 281 281 281 282 283 285 287 289 290 292 295 297 298 300 302 303 306 308 309 309 308 307 305 301 300 299 298 298 298 298 298 298
214 218 223 230 235 239 243 247 251 251 247 244 245 244 239 236 237 240 242 245 249 250 251 252 253 256 256 255 256 258 260 264 267 268 269 271 273 274 274 275 275 275 276 277 278 279 279 279 278 277 277 278 280 281 284 286 287 287 287 287 288 289 291 293 294 296 299 302 304 306 307 306 305 304 304 303 302 301 300 300 299 298 298 298 298
214 221 227 232 236 239 243 247 250 250 249 250 253 254 252 249 248 249 250 252 254 255 257 257 257 258 258 259 261 263 265 267 270 271 273 274 276 277 278 278 278 278 278 279 279 279 280 280 280 278 277 278 279 281 283 285 287 287 288 288 289 289 290 291 293 296 299 301 302 302 302 301 301 301 301 302 302 302 302 302 301 300 300 299 299
219 223 226 229 233 237 240 244 247 247 248 248 250 252 253 252 252 254 255 255 256 258 259 260 262 262 263 265 266 268 269 270 271 273 274 276 277 279 280 281 281 282 282 282 282 281 282 281 281 281 280 280 280 281 282 284 285 286 287 288 288 288 289 291 293 295 297 298 299 299 298 298 299 299 300 300 301 301 302 302 302 302 301 300 299
237 235 234 231 229 231 236 240 242 242 242 242 243 245 247 249 253 256 258 260 262 263 265 265 266 267 268 270 270 271 272 273 274 276 277 279 280 280 281 282 282 283 284 285 286 286 285 284 283 282 281 281 282 282 282 283 284 285 286 287 287 288 289 290 292 293 294 295 295 296 296 297 298 298 299 300 300 301 301 301 302 301 300 299 299
252 250 248 242 235 233 235 239 242 244 245 244 244 246 248 251 255 258 262 265 267 268 269 271 272 273 274 274 275 276 277 277 277 278 279 280 280 280 280 280 281 282 284 285 286 286 287 286 285 283 281 281 281 281 282 282 283 284 285 286 288 289 290 291 292 292 292 292 292 293 294 295 297 298 299 300 300 301 301 301 301 301 300 300 299
250 251 254 252 248 246 245 243 242 241 241 242 243 245 247 249 252 255 259 262 265 269 272 274 276 277 278 278 278 279 280 280 281 281 281 281 281 281 281 281 281 282 282 283 283 283 284 284 285 285 283 282 282 282 282 283 283 284 285 286 287 288 289 290 291 291 291 291 292 293 295 297 298 299 300 300 301 302 302 303 303 302 301 301 301
250 250 253 255 256 257 258 255 249 242 238 237 236 236 239 242 245 249 253 259 265 270 274 276 278 279 279 279 279 279 280 280 280 280 280 281 282 283 283 283 283 284 284 284 284 283 283 283 283 283 283 283 283 284 285 285 286 286 287 288 288 289 291 291 291 292 292 293 294 296 298 299 300 300 301 302 303 303 304 303 303 302 302 301 301
250 250 253 257 261 265 268 267 259 248 244 243 244 246 247 246 246 248 254 261 265 268 272 275 277 278 279 279 279 279 278 278 278 278 279 280 281 283 284 285 285 285 285 285 285 284 284 284 284 284 283 283 283 284 284 285 285 286 287 288 289 290 291 291 292 293 294 295 297 298 299 300 301 301 302 303 303 303 303 302 302 301 301 300 300
248 251 253 257 262 265 267 268 262 252 248 249 252 255 255 254 254 256 261 264 265 265 268 272 274 275 275 275 275 275 276 276 277 277 277 278 280 282 284 285 285 285 284 284 284 284 284 284 285 284 284 284 284 284 284 284 285 285 286 287 288 289 289 290 291 292 293 295 297 298 298 299 300 301 301 301 301 301 300 300 300 300 299 299 299
254 255 253 254 258 260 261 261 260 257 257 258 257 256 255 254 255 258 260 261 263 264 267 269 270 272 272 272 273 273 274 274 275 275 276 277 279 281 283 285 285 284 284 284 285 285 285 284 284 283 283 283 283 283 283 283 284 284 284 285 285 286 286 288 289 290 292 294 295 296 297 298 299 299 299 299 299 299 298 299 298 299 298 298 298
257 257 257 256 257 259 259 259 258 259 261 262 260 257 255 253 253 255 257 260 262 265 268 269 271 272 272 273 273 274 274 274 274 275 275 276 278 280 281 282 282 283 284 284 285 285 285 285 284 283 283 282 282 282 282 282 282 282 282 283 284 284 285 287 288 290 291 292 294 295 296 296 296 297 297 297 297 297 297 298 298 298 297 297 297
260 260 259 258 258 259 259 258 257 257 258 259 259 258 256 254 254 255 257 258 261 264 268 271 274 275 275 276 276 275 275 275 274 274 275 276 277 278 279 279 280 280 281 282 283 284 284 284 284 283 283 282 282 282 282 281 281 281 282 282 283 284 285 287 288 289 290 292 293 294 294 294 294 295 295 296 297 297 297 297 297 296 296 296 297
264 263 262 261 260 259 258 257 256 255 254 255 256 258 258 258 258 258 259 259 260 263 266 269 272 273 274 275 276 276 276 276 275 275 275 275 276 277 277 277 277 279 280 281 282 283 283 283 283 283 283 283 282 282 282 281 281 281 282 283 283 284 286 287 288 289 290 291 292 292 292 292 293 294 295 296 297 296 296 296 296 296 297 299 300
263 263 264 264 262 261 260 259 258 257 255 254 254 255 256 257 259 260 261 261 261 262 265 267 268 269 270 272 274 275 275 275 275 275 275 275 276 276 276 276 277 278 280 281 282 283 283 283 283 283 283 283 283 282 282 282 282 282 282 282 283 284 285 286 287 288 289 289 289 289 290 291 292 294 295 295 295 296 296 297 298 299 300 301 302
261 260 260 260 260 260 260 259 258 258 257 256 255 256 256 257 258 259 261 263 263 264 266 267 268 268 269 271 272 273 274 274 275 275 275 275 276 276 277 277 278 279 280 281 281 281 281 282 282 282 283 283 284 284 284 283 282 282 282 282 283 283 284 285 285 286 286 286 286 288 289 291 292 293 294 295 297 298 299 300 300 301 301 302 304
259 258 257 256 255 255 255 255 255 255 254 253 253 254 256 258 259 260 261 262 264 265 267 268 269 270 271 272 272 272 273 274 275 276 276 276 276 276 276 276 277 278 278 279 279 279 279 280 281 282 283 284 285 285 285 284 282 282 282 282 282 283 283 283 283 282 283 285 287 288 290 292 293 295 297 300 302 302 302 302 302 302 303 304 306
257 257 256 255 254 253 253 252 252 251 250 250 250 252 255 257 259 260 261 262 263 265 266 268 269 271 272 273 273 274 274 276 278 278 277 276 275 273 272 273 275 275 276 276 277 278 279 280 283 284 285 286 286 284 282 281 280 279 280 281 281 281 281 280 281 283 284 286 288 290 292 294 297 300 303 304 305 304 303 302 302 302 303 303 304
259 258 256 256 255 254 253 252 251 251 251 251 252 253 254 255 255 257 259 262 263 264 266 268 270 272 273 273 274 275 277 279 280 278 275 272 270 268 269 271 272 274 275 276 278 279 280 282 285 287 288 287 284 280 277 276 276 277 278 279 280 280 281 281 283 284 286 288 291 294 297 300 303 305 306 306 305 304 302 301 301 301 301 302 303
261 260 259 258 257 256 255 254 252 251 251 250 251 252 253 252 252 253 257 260 262 264 267 269 271 272 273 274 275 277 278 279 278 274 269 266 266 268 270 271 273 275 276 277 278 279 281 283 286 287 286 283 278 274 273 274 275 276 278 279 280 281 282 282 283 285 288 292 296 300 303 305 306 307 308 307 306 304 302 300 300 302 304 306 307
261 261 260 259 257 256 255 254 253 251 250 249 249 249 250 250 251 253 255 258 261 263 265 268 270 273 275 276 277 277 275 273 271 268 267 267 269 271 273 274 275 276 276 277 278 278 279 282 284 283 279 275 273 273 274 275 276 277 279 280 280 280 281 283 287 291 295 299 303 305 306 307 308 311 312 311 310 309 306 304 304 308 311 313 314
260 260 259 258 256 254 252 252 251 250 249 249 249 250 250 250 252 253 253 255 258 261 264 267 270 274 277 278 277 273 269 267 267 266 267 269 271 273 274 274 274 274 275 276 276 274 274 275 275 273 272 273 274 275 277 277 276 276 277 277 278 280 284 290 294 298 302 305 307 308 309 310 313 316 318 318 316 314 311 310 313 317 317 316 316
261 259 257 255 253 252 250 249 248 248 248 248 249 250 251 253 254 255 254 254 256 259 263 266 270 273 276 277 273 268 266 266 267 267 268 270 272 273 272 271 269 270 272 273 270 268 267 267 267 268 269 272 275 277 278 276 274 273 273 275 280 287 292 296 299 303 307 310 311 311 313 316 320 323 325 324 322 319 318 319 322 323 321 318 316
260 259 256 254 252 250 249 248 246 246 246 246 247 248 250 252 254 255 257 257 258 259 262 266 269 272 274 273 270 267 266 266 266 267 268 269 270 270 269 266 265 267 268 267 262 258 258 261 264 266 268 271 274 275 273 270 269 272 277 284 291 294 295 298 303 308 311 312 313 316 319 323 326 329 330 329 328 326 325 326 328 329 327 321 317
258 257 256 254 251 250 249 249 247 245 245 245 247 248 250 252 254 256 258 259 260 262 264 265 268 270 271 270 268 266 266 265 264 264 264 263 262 261 259 258 259 261 260 255 249 247 251 258 262 265 268 272 272 268 265 267 274 283 290 292 291 291 295 302 307 309 310 314 319 323 327 329 332 334 335 334 332 330 329 330 331 333 331 325 321
253 253 252 251 251 252 251 249 248 247 246 246 248 249 251 252 254 255 257 259 260 262 263 265 267 268 268 266 265 264 263 261 259 259 257 253 248 246 248 251 253 252 247 241 239 243 251 258 263 266 267 266 263 261 266 278 289 294 292 287 287 294 303 308 308 310 316 324 329 332 333 335 336 338 338 337 333 330 329 330 331 331 331 328 326
247 248 248 249 250 251 250 248 246 247 249 249 248 247 249 251 253 254 255 256 258 260 263 265 266 266 265 263 262 260 258 256 256 254 250 242 237 239 244 244 241 238 235 235 240 247 252 256 260 261 259 255 257 266 279 288 292 289 285 285 295 307 313 312 312 317 327 334 337 337 338 339 340 341 340 338 334 330 328 328 329 329 330 331 331
239 241 243 246 248 249 249 248 247 248 250 250 248 248 250 253 254 254 255 256 257 259 261 262 263 263 262 260 259 257 256 254 250 245 238 233 232 234 234 230 227 229 233 238 243 247 249 251 251 250 249 252 263 275 282 284 282 278 281 295 310 315 314 313 318 326 334 340 342 342 342 342 342 343 342 340 337 334 330 328 328 328 330 336 337
232 235 238 242 246 249 248 246 245 247 250 253 255 257 258 258 257 256 256 256 257 257 258 259 258 257 255 252 250 248 242 233 228 224 222 222 222 221 220 220 225 230 234 237 240 241 239 238 238 241 246 257 268 273 274 273 272 275 291 311 314 312 312 316 324 333 341 345 345 344 345 345 345 345 345 343 340 338 335 331 329 328 331 338 340
224 229 231 236 244 249 249 247 246 248 252 256 258 259 258 258 257 256 255 255 255 254 254 251 247 243 237 230 223 211 198 197 202 204 204 206 208 210 214 220 226 229 231 232 231 228 223 224 230 239 249 259 262 262 262 263 268 284 311 318 314 314 318 323 332 340 345 347 347 347 347 347 347 348 348 346 343 342 340 336 332 331 332 336 337
216 221 226 233 242 249 253 254 253 253 253 254 255 256 255 254 252 250 248 246 243 238 234 227 220 214 204 197 197 194 190 190 193 194 196 200 205 211 219 225 227 227 227 223 217 210 210 218 228 237 247 252 252 253 255 261 271 294 312 315 316 320 323 327 337 344 347 348 348 348 349 349 348 349 350 349 347 346 345 341 336 333 333 336 335
204 211 220 232 246 256 262 264 263 259 256 254 254 254 249 242 234 229 225 214 202 198 200 200 198 193 186 186 191 192 189 189 191 193 197 205 211 215 219 221 220 219 216 209 202 202 210 219 227 233 237 242 245 248 255 264 276 294 307 312 316 321 324 329 338 346 348 348 348 349 349 349 348 350 352 353 351 350 348 345 340 335 335 338 336
190 203 220 241 258 268 272 271 264 252 237 228 234 243 235 215 204 200 195 186 178 177 182 185 185 183 180 180 183 184 184 188 195 199 204 210 211 209 208 209 208 206 202 196 196 205 214 220 224 227 232 238 244 253 265 274 282 293 302 306 311 318 324 328 335 345 349 349 348 349 350 349 349 351 354 356 356 354 351 348 345 341 338 339 338
177 192 208 215 210 323 340 324 178 163 155 149 145 135 132 141 152 158 163 166 164 160 159 159 160 163 168 173 177 180 182 189 196 198 199 200 198 194 195 198 197 194 190 191 198 208 214 217 221 227 235 242 248 259 272 280 286 292 296 301 308 317 323 327 332 341 347 348 349 350 350 350 350 351 355 358 359 357 353 351 349 347 343 341 342
140 133 126 119 104 80 63 73 114 142 141 132 130 132 132 133 135 136 136 139 141 144 150 156 158 161 165 170 173 177 179 183 187 187 187 188 189 189 190 190 187 185 186 191 198 203 207 214 224 232 240 247 253 262 274 282 289 293 297 304 312 318 322 326 330 336 342 345 346 348 351 351 351 351 354 358 359 358 356 354 352 350 347 344 344
120 115 111 108 103 86 76 88 111 129 131 127 129 136 137 135 135 136 137 138 140 145 154 163 170 175 178 176 172 170 170 172 176 179 183 186 186 184 183 182 181 182 185 189 193 198 206 219 230 236 244 254 261 270 280 285 290 295 302 310 316 320 322 325 328 331 336 339 342 345 349 352 352 351 353 356 357 357 358 356 353 351 350 346 344
113 105 100 100 100 93 90 100 110 116 118 122 130 137 137 136 138 142 145 148 148 152 160 170 176 179 179 176 169 165 166 169 174 177 180 180 178 176 175 176 177 180 182 185 193 205 216 227 237 246 256 265 271 277 283 286 291 297 303 310 316 318 320 322 324 327 330 333 336 340 345 349 350 351 353 355 355 355 357 358 356 353 351 348 344
105 92 86 89 99 104 106 110 116 120 123 129 134 137 139 141 143 147 155 161 165 170 180 183 176 166 163 166 169 170 171 172 174 175 174 172 170 169 171 173 176 180 184 190 203 217 229 242 253 263 271 275 278 281 285 289 294 300 305 310 313 315 316 318 320 322 325 327 331 335 340 344 347 350 352 354 354 353 354 356 356 354 352 349 346
105 95 88 89 106 118 115 108 107 114 123 130 135 137 138 141 147 155 164 171 177 180 178 171 161 157 162 170 173 173 173 173 172 171 170 168 167 169 172 175 178 182 186 198 216 232 249 265 274 278 281 282 283 284 287 291 296 301 305 308 310 311 313 314 315 318 320 322 325 330 335 339 343 347 350 352 353 353 353 354 354 354 352 349 347
110 106 99 98 112 126 125 115 109 110 113 119 127 134 136 140 155 165 168 170 170 163 159 160 161 163 168 171 170 169 170 169 168 168 169 168 168 171 175 178 183 190 203 225 247 267 280 284 286 286 287 286 287 288 290 293 296 299 302 304 306 307 308 309 311 314 317 318 320 326 331 334 338 343 348 350 351 351 352 352 352 353 352 349 347
Height
3120 3121 3122 3124 3126 3126 3127 3129 3131 3132 3133 3134 3135 3135 3136 3137 3138 3139 3140 3140 3141 3141 3142 3142 3142 3142 3142 3142 3141 3141 3141 3141 3140 3140 3140 3140 3140 3140 3140 3140 3140 3141 3141 3142 3142 3143 3143 3143 3144 3144 3144 3144 3144 3144 3144 3144 3144 3143 3143 3144 3144 3144 3144 3144 3144 3144 3144 3144 3144 3144 3144 3144 3143 3143 3143 3143 3142 3142 3141 3141 3140 3140 3139 3139 3139
3119 3120 3121 3123 3123 3124 3125 3126 3128 3130 3131 3132 3133 3133 3134 3135 3136 3137 3138 3139 3140 3140 3141 3141 3142 3142 3142 3142 3141 3141 3141 3140 3140 3139 3139 3139 3139 3139 3140 3140 3140 3140 3140 3141 3141 3142 3142 3142 3143 3143 3143 3143 3144 3144 3144 3144 3144 3143 3143 3143 3143 3143 3143 3143 3143 3143 3143 3143 3143 3142 3142 3142 3142 3142 3142 3141 3141 3140 3140 3139 3138 3138 3137 3136 3136
3118 3119 3120 3121 3122 3122 3122 3124 3125 3127 3128 3130 3131 3131 3132 3133 3135 3136 3137 3137 3138 3139 3140 3140 3141 3142 3142 3141 3141 3141 3140 3140 3139 3139 3138 3138 3138 3138 3139 3139 3139 3139 3139 3140 3140 3140 3141 3141 3141 3142 3142 3142 3143 3143 3143 3143 3143 3143 3143 3143 3143 3143 3143 3143 3142 3142 3141 3141 3141 3141 3141 3141 3141 3140 3140 3140 3139 3139 3138 3137 3137 3136 3135 3134 3133
3117 3118 3119 3120 3120 3121 3121 3122 3123 3125 3126 3128 3129 3130 3130 3132 3133 3134 3135 3136 3136 3137 3138 3139 3140 3141 3141 3140 3140 3140 3140 3139 3139 3138 3138 3137 3137 3137 3137 3138 3138 3139 3139 3139 3139 3139 3139 3139 3140 3140 3141 3141 3141 3141 3141 3141 3141 3141 3141 3142 3142 3142 3142 3142 3141 3141 3141 3140 3140 3140 3140 3139 3139 3139 3138 3138 3137 3137 3136 3135 3135 3134 3133 3132 3131
3117 3118 3118 3119 3119 3119 3119 3120 3121 3123 3124 3126 3127 3128 3129 3130 3131 3132 3134 3134 3135 3135 3136 3137 3138 3139 3139 3139 3139 3138 3138 3137 3137 3137 3137 3137 3136 3136 3136 3137 3137 3138 3138 3138 3138 3138 3138 3138 3138 3139 3139 3139 3139 3139 3140 3140 3140 3140 3140 3140 3140 3140 3140 3140 3140 3140 3139 3139 3139 3139 3138 3138 3137 3137 3136 3135 3135 3134 3133 3132 3132 3131 3130 3129 3128
3116 3117 3117 3117 3117 3117 3118 3118 3119 3121 3122 3124 3126 3127 3128 3128 3130 3131 3132 3132 3133 3134 3135 3136 3136 3136 3136 3137 3136 3136 3135 3135 3135 3135 3135 3135 3135 3135 3135 3135 3135 3136 3137 3137 3137 3137 3137 3137 3137 3137 3137 3137 3137 3137 3137 3137 3138 3138 3138 3138 3138 3138 3138 3138 3138 3138 3137 3137 3137 3136 3136 3135 3134 3134 3133 3132 3132 3131 3130 3129 3128 3127 3126 3125 3124
3115 3115 3115 3115 3116 3116 3116 3117 3118 3120 3121 3123 3124 3125 3126 3127 3128 3129 3130 3130 3131 3132 3133 3133 3134 3134 3134 3134 3134 3133 3133 3133 3132 3132 3133 3133 3133 3133 3133 3133 3133 3134 3134 3135 3135 3135 3135 3135 3136 3136 3136 3135 3135 3135 3134 3134 3135 3135 3135 3135 3135 3136 3136 3136 3135 3135 3135 3135 3134 3134 3133 3133 3132 3131 3130 3129 3128 3127 3127 3126 3125 3124 3122 3121 3119
3113 3113 3114 3114 3115 3115 3115 3116 3117 3118 3120 3121 3122 3123 3123 3124 3125 3126 3127 3128 3129 3130 3131 3131 3131 3132 3132 3132 3131 3131 3130 3130 3130 3130 3130 3130 3130 3130 3131 3131 3131 3131 3132 3132 3133 3133 3133 3133 3134 3134 3134 3133 3133 3133 3133 3132 3132 3132 3132 3132 3132 3133 3133 3133 3132 3132 3131 3131 3131 3130 3130 3130 3129 3128 3127 3126 3124 3123 3122 3121 3120 3120 3119 3118 3116
3111 3111 3112 3113 3113 3114 3115 3115 3116 3117 3118 3119 3120 3120 3121 3122 3123 3124 3125 3126 3127 3127 3128 3128 3129 3129 3129 3129 3128 3128 3128 3127 3127 3127 3128 3128 3128 3128 3129 3129 3129 3130 3130 3130 3131 3131 3131 3131 3130 3130 3130 3131 3131 3131 3130 3130 3129 3129 3129 3129 3130 3130 3129 3129 3129 3128 3128 3127 3127 3126 3126 3125 3125 3124 3123 3122 3120 3119 3118 3117 3116 3115 3115 3114 3112
3108 3109 3110 3111 3112 3113 3113 3114 3115 3115 3116 3117 3117 3118 3119 3120 3121 3122 3122 3123 3124 3124 3125 3125 3125 3125 3125 3125 3125 3125 3125 3124 3124 3125 3125 3126 3126 3126 3127 3127 3128 3128 3128 3128 3129 3129 3129 3129 3128 3127 3127 3127 3127 3127 3127 3127 3126 3126 3126 3127 3127 3126 3126 3125 3125 3124 3124 3123 3122 3122 3121 3121 3120 3119 3118 3117 3116 3115 3113 3113 3112 3111 3110 3110 3109
3106 3107 3108 3109 3110 3111 3111 3112 3113 3113 3114 3114 3115 3116 3117 3118 3118 3119 3120 3120 3121 3121 3122 3122 3122 3122 3122 3122 3122 3122 3122 3122 3122 3123 3123 3124 3124 3125 3125 3126 3126 3126 3126 3127 3127 3127 3126 3126 3125 3125 3124 3124 3124 3124 3124 3124 3124 3123 3123 3124 3123 3123 3122 3122 3121 3120 3120 3119 3118 3117 3116 3116 3115 3115 3114 3113 3112 3111 3109 3108 3107 3106 3105 3105 3104
3104 3105 3106 3107 3108 3108 3109 3110 3110 3111 3111 3111 3112 3113 3114 3115 3116 3117 3117 3117 3118 3118 3119 3119 3119 3119 3119 3120 3120 3120 3120 3120 3120 3121 3122 3122 3123 3123 3124 3124 3124 3124 3124 3125 3124 3124 3124 3123 3123 3122 3122 3122 3122 3122 3121 3121 3121 3121 3121 3120 3120 3119 3119 3118 3117 3116 3116 3115 3114 3113 3112 3111 3110 3110 3109 3108 3107 3106 3105 3104 3103 3102 3101 3100 3099
3102 3103 3104 3105 3106 3106 3107 3108 3108 3108 3108 3108 3109 3110 3111 3112 3113 3114 3114 3115 3115 3115 3116 3116 3116 3117 3117 3117 3118 3118 3118 3119 3119 3119 3119 3120 3121 3121 3122 3122 3122 3122 3122 3122 3122 3121 3121 3121 3121 3120 3120 3119 3119 3119 3119 3118 3118 3118 3117 3117 3116 3116 3115 3114 3113 3112 3112 3111 3110 3109 3108 3107 3106 3105 3104 3103 3102 3101 3100 3099 3098 3097 3096 3095 3094
3099 3100 3101 3102 3103 3104 3105 3105 3106 3106 3106 3106 3107 3107 3108 3109 3110 3111 3112 3112 3113 3113 3113 3114 3114 3115 3115 3115 3116 3116 3116 3116 3116 3116 3117 3117 3118 3118 3119 3119 3119 3119 3119 3119 3119 3119 3118 3118 3118 3117 3117 3117 3117 3117 3116 3115 3115 3114 3114 3113 3113 3112 3111 3110 3109 3109 3108 3108 3106 3105 3105 3103 3102 3101 3099 3098 3097 3096 3095 3094 3093 3092 3091 3090 3089
3098 3098 3099 3100 3101 3102 3102 3103 3103 3104 3105 3105 3105 3106 3106 3107 3108 3109 3109 3110 3111 3111 3112 3112 3112 3113 3113 3113 3114 3114 3114 3114 3114 3114 3114 3115 3115 3115 3116 3116 3116 3116 3115 3115 3115 3115 3115 3115 3114 3114 3114 3114 3114 3113 3113 3112 3112 3111 3110 3110 3109 3108 3107 3107 3106 3105 3105 3104 3103 3101 3100 3099 3098 3096 3095 3094 3093 3091 3090 3089 3088 3087 3085 3084 3083
3096 3097 3097 3098 3098 3099 3100 3100 3101 3102 3102 3103 3104 3104 3105 3105 3106 3106 3107 3108 3109 3109 3110 3110 3110 3111 3111 3111 3111 3112 3112 3112 3112 3111 3111 3111 3112 3112 3112 3112 3112 3112 3112 3112 3111 3111 3111 3111 3111 3111 3111 3110 3110 3110 3109 3109 3108 3107 3107 3106 3105 3105 3104 3103 3103 3102 3101 3100 3099 3098 3097 3095 3094 3093 3091 3090 3088 3087 3086 3084 3083 3081 3079 3078 3077
3094 3095 3095 3096 3096 3096 3097 3097 3098 3099 3099 3100 3101 3101 3102 3102 3103 3104 3104 3105 3106 3106 3107 3107 3107 3108 3108 3108 3108 3108 3108 3108 3108 3108 3108 3108 3109 3109 3109 3109 3109 3109 3109 3108 3108 3108 3108 3108 3108 3108 3108 3107 3107 3106 3106 3105 3105 3104 3103 3102 3102 3101 3100 3100 3099 3098 3097 3096 3095 3094 3093 3092 3091 3089 3087 3086 3084 3083 3081 3079 3078 3076 3074 3072 3071
3091 3092 3093 3094 3094 3094 3094 3095 3095 3095 3096 3097 3097 3098 3099 3099 3100 3101 3101 3102 3103 3103 3104 3104 3104 3104 3104 3104 3105 3105 3105 3105 3105 3105 3105 3105 3105 3105 3105 3106 3106 3106 3106 3106 3106 3105 3105 3105 3105 3105 3104 3104 3103 3103 3102 3102 3101 3100 3100 3099 3098 3097 3096 3096 3095 3094 3093 3092 3091 3090 3089 3088 3087 3085 3083 3081 3079 3078 3076 3074 3072 3070 3068 3066 3065
3088 3089 3090 3090 3091 3091 3092 3093 3093 3093 3093 3093 3094 3094 3095 3096 3097 3097 3098 3099 3099 3100 3100 3100 3100 3101 3101 3101 3101 3102 3102 3102 3102 3102 3102 3102 3102 3102 3102 3102 3102 3102 3102 3102 3102 3102 3102 3102 3101 3101 3100 3100 3099 3099 3098 3098 3097 3097 3096 3095 3094 3093 3092 3092 3091 3090 3089 3088 3087 3086 3085 3084 3082 3080 3078 3077 3074 3072 3071 3069 3067 3065 3063 3061 3059
3085 3085 3086 3087 3088 3088 3089 3090 3090 3090 3091 3091 3092 3092 3093 3093 3094 3094 3095 3095 3095 3096 3096 3096 3097 3097 3097 3098 3098 3099 3099 3099 3099 3099 3099 3099 3099 3098 3098 3098 3098 3098 3099 3099 3098 3098 3098 3098 3097 3097 3096 3096 3095 3095 3094 3094 3093 3093 3092 3091 3090 3089 3088 3087 3086 3085 3084 3083 3082 3081 3080 3079 3077 3075 3074 3072 3070 3068 3066 3064 3062 3060 3058 3056 3054
3081 3082 3083 3084 3084 3085 3086 3086 3086 3087 3088 3089 3089 3090 3090 3090 3091 3091 3091 3091 3092 3092 3092 3093 3093 3094 3094 3095 3095 3095 3095 3095 3095 3095 3095 3095 3095 3095 3095 3095 3095 3095 3095 3095 3095 3094 3094 3094 3093 3093 3092 3091 3091 3090 3090 3089 3089 3088 3088 3087 3086 3085 3084 3082 3082 3081 3080 3079 3078 3077 3075 3074 3072 3071 3069 3067 3065 3063 3061 3059 3057 3055 3053 3050 3048
3077 3078 3079 3080 3081 3081 3082 3082 3083 3083 3084 3085 3085 3086 3086 3087 3087 3087 3088 3088 3088 3088 3089 3089 3090 3090 3090 3091 3091 3091 3091 3091 3091 3091 3091 3091 3091 3091 3091 3091 3091 3091 3091 3091 3091 3091 3090 3090 3089 3089 3088 3088 3087 3086 3086 3085 3085 3084 3083 3082 3082 3081 3079 3078 3077 3077 3076 3075 3074 3072 3071 3069 3068 3066 3065 3063 3061 3059 3057 3055 3053 3050 3048 3045 3043
3073 3074 3075 3076 3077 3077 3078 3079 3079 3080 3081 3081 3082 3082 3083 3083 3084 3084 3084 3084 3085 3085 3085 3085 3086 3086 3086 3087 3087 3087 3087 3087 3087 3087 3087 3087 3087 3087 3087 3087 3086 3086 3087 3087 3086 3086 3086 3085 3085 3085 3084 3083 3083 3082 3082 3081 3080 3080 3079 3078 3077 3076 3075 3074 3074 3073 3072 3071 3069 3068 3067 3065 3063 3062 3060 3058 3057 3054 3052 3050 3048 3045 3043 3041 3038
3069 3070 3071 3071 3072 3073 3074 3075 3076 3077 3077 3078 3078 3079 3079 3080 3080 3081 3081 3081 3081 3081 3082 3082 3082 3082 3083 3083 3083 3083 3083 3083 3083 3083 3083 3083 3083 3082 3082 3082 3082 3082 3082 3082 3082 3082 3081 3081 3080 3080 3079 3079 3078 3078 3077 3076 3076 3075 3074 3074 3073 3072 3071 3070 3069 3069 3067 3066 3065 3064 3062 3061 3059 3057 3056 3054 3052 3050 3047 3045 3043 3041 3038 3035 3033
3064 3065 3066 3067 3068 3069 3069 3070 3071 3072 3073 3074 3075 3075 3076 3076 3077 3077 3077 3078 3078 3078 3078 3078 3079 3079 3079 3079 3079 3079 3079 3079 3079 3079 3078 3078 3078 3078 3078 3078 3078 3078 3078 3078 3077 3077 3076 3076 3075 3075 3074 3074 3073 3073 3072 3071 3071 3070 3069 3069 3068 3067 3067 3066 3065 3064 3063 3062 3061 3059 3058 3056 3055 3053 3051 3049 3047 3044 3042 3040 3037 3035 3033 3030 3028
3059 3060 3061 3062 3063 3063 3064 3065 3066 3067 3069 3069 3070 3071 3072 3072 3072 3073 3073 3074 3074 3074 3075 3075 3075 3075 3075 3075 3075 3075 3075 3074 3074 3074 3074 3074 3074 3073 3073 3073 3073 3073 3073 3073 3072 3072 3072 3071 3070 3070 3069 3069 3068 3068 3067 3066 3066 3065 3064 3064 3063 3063 3062 3061 3061 3060 3059 3058 3056 3055 3054 3052 3051 3049 3047 3045 3042 3040 3037 3034 3032 3030 3027 3025 3023
3054 3055 3056 3056 3057 3058 3059 3060 3061 3062 3063 3064 3065 3066 3067 3067 3068 3068 3069 3069 3070 3070 3070 3071 3071 3071 3071 3071 3071 3071 3070 3070 3070 3070 3070 3070 3069 3069 3069 3069 3069 3069 3069 3068 3068 3067 3067 3066 3066 3066 3065 3064 3063 3063 3062 3062 3061 3060 3060 3060 3059 3059 3058 3057 3056 3055 3054 3053 3052 3051 3050 3048 3046 3045 3042 3040 3037 3035 3032 3029 3026 3024 3022 3020 3019
3048 3049 3050 3051 3052 3053 3054 3055 3056 3056 3058 3059 3060 3060 3061 3062 3063 3063 3064 3064 3065 3065 3065 3066 3066 3067 3067 3067 3066 3066 3066 3066 3066 3065 3065 3065 3065 3064 3064 3064 3064 3064 3064 3064 3063 3063 3062 3062 3062 3061 3061 3060 3059 3058 3058 3057 3056 3056 3056 3055 3055 3054 3054 3053 3052 3051 3050 3049 3048 3047 3046 3044 3042 3040 3038 3035 3033 3030 3027 3024 3021 3019 3018 3016 3014
3041 3042 3044 3045 3046 3047 3048 3049 3050 3051 3052 3053 3054 3055 3056 3056 3057 3058 3059 3059 3060 3060 3060 3061 3061 3062 3062 3062 3061 3061 3061 3061 3061 3061 3061 3061 3060 3060 3060 3060 3060 3060 3060 3060 3059 3059 3058 3058 3058 3057 3056 3056 3055 3054 3054 3053 3052 3052 3052 3051 3050 3050 3049 3049 3048 3047 3047 3046 3044 3043 3042 3040 3038 3036 3033 3031 3028 3025 3022 3020 3017 3015 3014 3012 3010
3035 3036 3037 3038 3039 3040 3042 3043 3044 3045 3046 3047 3048 3049 3050 3051 3051 3052 3053 3053 3054 3055 3055 3056 3056 3056 3056 3057 3056 3056 3056 3056 3056 3056 3056 3056 3056 3056 3056 3056 3056 3056 3056 3056 3056 3055 3055 3055 3054 3053 3053 3052 3051 3050 3050 3050 3049 3049 3048 3048 3047 3046 3046 3045 3045 3044 3043 3042 3041 3039 3038 3036 3034 3032 3030 3027 3025 3022 3019 3017 3015 3013 3011 3009 3007
3027 3029 3030 3031 3033 3034 3035 3036 3038 3039 3040 3041 3042 3043 3044 3045 3045 3046 3047 3048 3049 3049 3050 3050 3051 3051 3051 3051 3051 3051 3051 3051 3052 3052 3052 3052 3052 3052 3052 3053 3053 3053 3052 3052 3052 3052 3051 3051 3051 3050 3049 3048 3048 3048 3047 3047 3046 3046 3045 3045 3044 3043 3043 3042 3042 3041 3040 3039 3037 3036 3034 3032 3030 3028 3026 3023 3021 3019 3016 3014 3012 3010 3008 3006 3003
3020 3022 3023 3025 3026 3027 3028 3030 3031 3033 3034 3036 3036 3037 3038 3039 3040 3041 3042 3043 3044 3044 3045 3045 3045 3046 3046 3046 3046 3046 3046 3047 3047 3047 3047 3047 3048 3048 3048 3049 3049 3049 3048 3048 3048 3048 3048 3048 3047 3047 3046 3046 3046 3046 3045 3044 3044 3043 3043 3042 3041 3041 3040 3040 3039 3038 3037 3036 3034 3032 3030 3029 3027 3025 3022 3020 3017 3015 3013 3011 3009 3007 3004 3002 3000
3014 3016 3017 3018 3019 3021 3022 3023 3025 3027 3028 3030 3031 3031 3032 3033 3034 3035 3037 3038 3039 3039 3040 3040 3040 3041 3041 3041 3041 3041 3041 3042 3042 3042 3043 3043 3044 3044 3044 3044 3044 3044 3045 3045 3045 3045 3045 3045 3045 3044 3044 3044 3044 3043 3042 3042 3041 3041 3040 3040 3039 3038 3038 3037 3036 3035 3034 3033 3031 3029 3027 3026 3024 3022 3019 3016 3014 3012 3010 3008 3005 3003 3001 2999 2998
3007 3009 3011 3012 3013 3015 3016 3017 3019 3021 3022 3024 3025 3026 3027 3028 3029 3030 3031 3032 3033 3034 3035 3035 3035 3036 3036 3036 3036 3036 3036 3037 3037 3038 3038 3039 3039 3040 3040 3040 3040 3040 3041 3041 3042 3042 3042 3042 3042 3042 3042 3042 3041 3041 3040 3039 3039 3038 3038 3037 3037 3036 3035 3035 3034 3033 3031 3030 3028 3027 3025 3023 3021 3018 3016 3013 3011 3009 3006 3004 3002 3000 2998 2997 2995
3001 3003 3005 3006 3007 3009 3010 3012 3013 3015 3016 3018 3019 3020 3021 3022 3023 3025 3026 3027 3028 3029 3030 3030 3030 3031 3031 3031 3031 3031 3032 3032 3033 3034 3034 3035 3035 3035 3036 3036 3036 3037 3037 3038 3038 3039 3039 3040 3040 3040 3040 3039 3039 3038 3037 3037 3036 3036 3035 3035 3034 3034 3033 3033 3032 3030 3029 3028 3026 3024 3022 3020 3018 3015 3013 3010 3007 3005 3003 3001 3000 2998 2996 2994 2992
2995 2997 2999 3001 3002 3004 3005 3007 3008 3009 3011 3012 3013 3015 3016 3017 3019 3020 3021 3022 3023 3024 3024 3025 3025 3026 3026 3026 3026 3027 3027 3028 3028 3029 3030 3031 3031 3032 3032 3032 3033 3033 3034 3035 3035 3036 3037 3037 3037 3037 3037 3036 3036 3036 3035 3035 3034 3034 3033 3033 3033 3032 3032 3031 3030 3028 3027 3026 3024 3022 3020 3018 3015 3013 3010 3007 3004 3002 3001 2999 2998 2996 2994 2991 2989
2991 2993 2994 2996 2997 2999 3000 3002 3003 3004 3006 3007 3009 3010 3011 3012 3014 3015 3016 3017 3018 3018 3019 3019 3020 3020 3021 3021 3022 3022 3023 3023 3024 3025 3026 3027 3027 3028 3029 3029 3030 3030 3031 3032 3033 3034 3034 3035 3035 3035 3034 3034 3034 3033 3033 3033 3032 3032 3031 3031 3031 3030 3030 3029 3028 3027 3025 3024 3022 3020 3018 3015 3013 3010 3007 3005 3003 3001 2999 2997 2996 2994 2991 2989 2987
2987 2989 2990 2992 2993 2995 2996 2997 2999 3000 3001 3002 3003 3004 3006 3007 3008 3009 3010 3011 3012 3013 3014 3014 3015 3015 3015 3016 3017 3017 3018 3018 3019 3020 3021 3022 3024 3025 3025 3026 3027 3028 3029 3030 3031 3031 3032 3033 3033 3032 3032 3032 3032 3031 3031 3031 3030 3030 3030 3030 3029 3028 3028 3027 3026 3025 3023 3022 3020 3018 3015 3013 3010 3008 3005 3003 3001 2999 2997 2995 2993 2992 2989 2987 2985
2983 2985 2987 2989 2990 2992 2993 2994 2995 2996 2997 2998 2999 3000 3001 3002 3003 3004 3005 3006 3007 3008 3009 3009 3010 3010 3010 3011 3011 3012 3013 3014 3015 3016 3018 3019 3020 3022 3023 3024 3025 3026 3027 3028 3029 3029 3030 3030 3030 3030 3030 3030 3030 3029 3029 3029 3029 3029 3029 3028 3027 3027 3026 3026 3024 3023 3021 3020 3018 3016 3014 3011 3008 3006 3003 3001 2999 2997 2995 2993 2991 2989 2987 2985 2983
2981 2983 2985 2986 2988 2989 2990 2991 2992 2993 2994 2995 2996 2996 2997 2998 2999 2999 3000 3001 3002 3003 3004 3004 3005 3005 3006 3006 3007 3008 3009 3011 3013 3014 3015 3016 3018 3019 3020 3021 3023 3024 3025 3026 3026 3027 3028 3028 3028 3028 3028 3028 3028 3028 3028 3028 3028 3028 3027 3026 3026 3025 3025 3024 3023 3021 3019 3018 3016 3014 3012 3009 3007 3005 3002 3000 2997 2995 2993 2991 2989 2987 2985 2983 2981
2979 2981 2983 2984 2985 2986 2987 2988 2989 2990 2991 2992 2992 2993 2993 2994 2994 2995 2996 2996 2997 2998 2999 3000 3000 3001 3002 3003 3004 3005 3007 3009 3010 3011 3013 3014 3016 3017 3018 3020 3021 3022 3023 3024 3025 3025 3026 3026 3026 3026 3027 3027 3027 3027 3027 3027 3027 3026 3025 3025 3025 3024 3024 3023 3021 3019 3018 3016 3014 3012 3010 3008 3006 3004 3001 2999 2996 2994 2991 2989 2987 2985 2983 2981 2979
2977 2979 2981 2983 2984 2984 2985 2986 2987 2987 2988 2988 2988 2989 2989 2990 2990 2991 2991 2992 2993 2994 2995 2996 2997 2998 3000 3001 3002 3004 3005 3007 3008 3010 3011 3013 3014 3015 3017 3018 3019 3020 3021 3022 3023 3023 3024 3024 3025 3025 3025 3025 3025 3026 3026 3026 3025 3024 3024 3024 3023 3023 3022 3021 3020 3018 3016 3015 3013 3011 3009 3007 3005 3002 3000 2998 2995 2992 2990 2988 2986 2984 2982 2980 2978
2977 2979 2980 2981 2982 2983 2983 2984 2984 2984 2984 2984 2985 2985 2985 2985 2986 2987 2988 2989 2990 2992 2993 2995 2996 2997 2998 3000 3001 3002 3004 3005 3007 3009 3010 3012 3013 3014 3015 3016 3017 3018 3019 3020 3021 3022 3022 3023 3023 3024 3024 3024 3024 3024 3024 3024 3023 3023 3023 3022 3022 3022 3021 3020 3019 3017 3015 3014 3012 3010 3008 3006 3004 3002 2999 2997 2994 2991 2989 2986 2984 2982 2980 2979 2977
2977 2978 2979 2980 2981 2981 2982 2981 2981 2981 2981 2982 2982 2982 2982 2982 2983 2985 2986 2988 2989 2991 2993 2994 2995 2996 2998 2999 3000 3002 3003 3005 3006 3008 3009 3010 3011 3012 3013 3015 3016 3017 3018 3019 3020 3020 3021 3021 3022 3022 3023 3023 3023 3023 3023 3022 3022 3022 3021 3021 3021 3020 3019 3018 3017 3016 3015 3013 3011 3009 3007 3005 3003 3001 2998 2995 2993 2990 2988 2985 2983 2981 2979 2978 2976
2977 2978 2979 2980 2981 2981 2980 2980 2980 2980 2981 2981 2982 2982 2982 2982 2984 2985 2987 2988 2990 2992 2993 2995 2996 2997 2998 2999 3000 3001 3003 3004 3006 3007 3008 3009 3010 3011 3013 3014 3015 3016 3017 3018 3018 3019 3020 3020 3021 3021 3021 3022 3022 3021 3021 3021 3021 3021 3020 3020 3019 3019 3018 3017 3016 3015 3013 3012 3010 3008 3006 3004 3002 3000 2997 2994 2991 2989 2987 2984 2982 2980 2978 2977 2975
2978 2979 2980 2980 2980 2981 2980 2980 2980 2981 2982 2983 2984 2984 2985 2985 2986 2988 2989 2990 2992 2993 2994 2996 2997 2998 2998 2999 3000 3002 3003 3004 3005 3006 3008 3009 3010 3011 3012 3013 3014 3015 3016 3017 3017 3018 3019 3019 3019 3020 3020 3020 3020 3020 3020 3020 3020 3019 3019 3018 3018 3017 3016 3015 3014 3013 3012 3011 3009 3007 3006 3003 3001 2998 2996 2993 2991 2988 2986 2983 2981 2979 2977 2975 2974
2979 2980 2981 2981 2981 2981 2981 2981 2982 2982 2983 2984 2985 2986 2987 2988 2989 2990 2991 2993 2994 2995 2996 2997 2997 2998 2999 3000 3001 3002 3003 3004 3005 3006 3008 3009 3010 3011 3012 3013 3014 3014 3015 3016 3016 3017 3018 3018 3018 3019 3019 3019 3019 3019 3019 3018 3018 3018 3017 3017 3016 3015 3014 3014 3013 3012 3010 3009 3008 3006 3004 3002 3000 2998 2995 2992 2990 2988 2985 2983 2981 2978 2976 2974 2973
2981 2982 2982 2983 2983 2983 2983 2983 2984 2984 2985 2986 2987 2988 2989 2990 2991 2992 2993 2994 2995 2996 2997 2997 2998 2999 3000 3001 3001 3002 3003 3004 3005 3007 3008 3009 3010 3011 3012 3013 3013 3014 3014 3015 3016 3016 3017 3017 3017 3017 3017 3017 3017 3017 3017 3017 3016 3016 3015 3015 3014 3013 3013 3012 3011 3010 3009 3007 3006 3004 3003 3001 2999 2997 2994 2991 2989 2987 2985 2982 2980 2978 2976 2974 2972
2983 2984 2984 2984 2985 2985 2985 2985 2986 2987 2987 2988 2989 2990 2991 2992 2993 2994 2994 2995 2996 2996 2997 2998 2998 2999 3000 3001 3002 3003 3004 3005 3006 3007 3008 3009 3010 3011 3012 3012 3013 3013 3014 3014 3015 3016 3016 3016 3016 3016 3016 3016 3016 3016 3015 3015 3015 3014 3013 3012 3012 3011 3011 3010 3009 3008 3007 3005 3004 3003 3001 3000 2998 2996 2993 2991 2988 2986 2984 2982 2980 2978 2975 2973 2971
2985 2986 2986 2986 2987 2987 2987 2988 2988 2989 2990 2990 2991 2991 2992 2993 2994 2994 2995 2996 2996 2997 2997 2998 2999 2999 3000 3001 3002 3003 3004 3005 3006 3007 3008 3009 3010 3011 3011 3012 3012 3013 3013 3014 3014 3015 3015 3015 3015 3015 3015 3014 3014 3014 3014 3013 3013 3012 3011 3011 3010 3009 3009 3008 3007 3006 3005 3004 3002 3001 3000 2998 2996 2994 2992 2990 2988 2986 2983 2981 2979 2977 2975 2973 2971
2987 2988 2988 2988 2989 2989 2989 2990 2990 2991 2991 2992 2992 2993 2994 2994 2994 2995 2995 2996 2997 2997 2998 2999 2999 3000 3001 3002 3003 3004 3005 3006 3007 3007 3008 3009 3010 3011 3011 3012 3012 3013 3013 3013 3013 3013 3013 3013 3013 3013 3013 3013 3013 3012 3012 3011 3010 3010 3009 3009 3008 3007 3006 3005 3004 3003 3002 3001 3000 2999 2998 2996 2995 2993 2991 2989 2987 2986 2983 2981 2979 2977 2975 2973 2971